Location: Unspecified
(41.1637°N, 24.2901°E)
Time: 07:42:43
(UTC+01:00)

ISS - Pass Details

Date: 08 December 2018
Orbit: 401 x 408 km, 51.6° (Epoch: 12 December)

Event Time Altitude Azimuth Distance (km) Brightness Sun altitude
Rises 17:38:47 0° 310° (NW) 2,318 0.5 -19.1°
Reaches altitude 10° 17:41:00 10° 320° (NW) 1,456 -0.7 -19.5°
Enters shadow 17:42:53 26° 347° (NNW) 842 -2.3 -19.8°
